Regional Weather Roundup
Issued by NWS

Home | Current Version | Previous Version | Graphics & Text | Print | Product List | Glossary On
Versions: 1 2 3 4 5 6 7 8 9 10 11 12 13 14 15 16 17 18 19 20 21 22 23 24 25 26 27 28 29 30 31 32 33 34 35 36 37 38 39 40 41 42 43 44 45 46 47 48 49 50
000
ASUS43 KMPX 252201
RWRMN
WEATHER ROUNDUP FOR MINNESOTA
NATIONAL WEATHER SERVICE TWIN CITIES/CHANHASSEN MN
500 PM CDT TUE JUL 25 2017


NOTE: "FAIR" INDICATES FEW OR NO CLOUDS BELOW 12,000 FEET WITH NO
SIGNIFICANT WEATHER AND/OR OBSTRUCTIONS TO VISIBILITY. N/A MEANS
CURRENT SKY AND/OR WEATHER CONDITIONS ARE NOT AVAILABLE.

MNZ060>063-068>070-252300-
   Twin Cities Metro

CITY           SKY/WX    TMP DP  RH WIND       PRES   REMARKS
TWIN CITIES    CLOUDY    82  71  69 S8        29.94F
ST PAUL        CLOUDY    80  72  76 SE8       29.94F
CRYSTAL        CLOUDY    81  68  64 SE7       29.92F
BLAINE         PTSUNNY   82  70  65 S9G17     29.93F
LAKEVILLE      MOSUNNY   82  73  74 S6        29.94F
EDEN PRAIRIE   CLOUDY    84  72  67 S13       29.92F
SOUTH ST PAUL  MOSUNNY   82  69  66 SE8       29.94F
LAKE ELMO      CLOUDY    79  70  73 S8        29.97F
$$
MNZ001>005-007-008-013>017-022>024-027-028-252300-
   Northwest Minnesota

CITY           SKY/WX    TMP DP  RH WIND       PRES   REMARKS
BEMIDJI        CLOUDY    73  67  82 S6        29.91S
HALLOCK        SUNNY     81  59  47 NW13G21   29.86S
ROSEAU         SUNNY     82  66  57 W14G22    29.85R
WARROAD        MOSUNNY   82  70  65 W16       29.83S
CROOKSTON      SUNNY     82  72  69 SW10      29.88R
FOSSTON        PTSUNNY   75  68  78 S13       29.91S
DETROIT LAKES  CLOUDY    75  68  78 W7        29.94S
MOORHEAD       CLOUDY    75  68  78 SW5       29.92S
PARK RAPIDS    CLOUDY    76  68  76 S8        29.91S
MAHNOMEN       CLOUDY    75  69  81 SW7       29.92R
$$
MNZ006-009>011-018-025>026-252300-
   North Central Minnesota

CITY           SKY/WX    TMP DP  RH WIND       PRES   REMARKS
BAUDETTE       PTSUNNY   80  69  69 SW15      29.84S
FLAG ISLAND    MOSUNNY   81  61  50 W10G22    29.80S
INTL FALLS     CLOUDY    73  66  78 S10G21    29.86F
WASKISH        CLOUDY    75  68  78 SW7       29.88S
BIG FORK       CLOUDY    72  66  83 S9        29.91F
LONGVILLE      CLOUDY    73  66  78 S5        29.92F
GRAND RAPIDS   CLOUDY    72  67  84 S8        29.94F
CRANE LAKE     CLOUDY    72  66  83 S7        29.90S
ORR            PTSUNNY   73  63  68 S10G21    29.88F
COOK             N/A     72  66  83 S7        29.91F
WALKER         CLOUDY    73  67  80 S3        29.91F
$$
MNZ012-019>021-037-252300-
   Northeast Minnesota

CITY           SKY/WX    TMP DP  RH WIND       PRES   REMARKS
DULUTH         CLOUDY    69  65  86 SE6       29.96F
ELY            CLOUDY    73  63  68 S12G18    29.93F
HIBBING        CLOUDY    70  66  87 S6        29.93F
EVELETH        CLOUDY    73  64  73 S9        29.96F
DULUTH HARBOR  CLOUDY    64  63  94 NE7       29.95F
TWO HARBORS    CLOUDY    72  64  78 CALM      29.95F
SILVER BAY     CLOUDY    72  63  73 CALM      29.96S
GRAND MARAIS     N/A     64  58  80 E3        29.96F
G MARAIS ARPRT CLOUDY    66  55  68 S5        30.01F
$$
MNZ029>031-032-039>041-046>048-054>057-064-252300-
   West Central Minnesota

CITY           SKY/WX    TMP DP  RH WIND       PRES   REMARKS
FERGUS FALLS   CLOUDY    79  70  73 SW7       29.90R
WHEATON        CLOUDY    79  70  73 S6        29.88F
MORRIS         CLOUDY    84  73  70 SE6       29.87F HX  91
ALEXANDRIA     CLOUDY    78  71  79 VRB5      29.90F
ELBOW LAKE     FAIR      77  72  85 SW3       29.90R
WADENA         PTSUNNY   77  70  78 S8        29.90F
GLENWOOD       CLOUDY    82  73  74 SE8       29.89F
APPLETON       CLOUDY    86  72  62 SE6       29.88R HX  92
BENSON         CLOUDY    88  72  58 S3        29.90F HX  94
ORTONVILLE     MOSUNNY   84  72  65 MISG      29.89S
MADISON        CLOUDY    86  73  66 E3        29.88S THUNDER HX  93
WILLMAR        FAIR      86  75  70 CALM      29.91F HX  95
$$
MNZ033>034-036-042>043-049>051-058-059-252300-
   Central Minnesota

CITY           SKY/WX    TMP DP  RH WIND       PRES   REMARKS
ST CLOUD       CLOUDY    80  72  76 SE5       29.93F
SAUK CENTRE    FAIR      80  72  78 SE5       29.90F
PAYNESVILLE    CLOUDY    86  72  62 E3        29.91F HX  92
AITKIN         CLOUDY    73  66  78 S6        29.91F
PINE RIVER     PTSUNNY   75  68  78 S8        29.95F
BRAINERD       CLOUDY    76  69  79 S9        29.91F
STAPLES        CLOUDY    77  68  73 S10       29.90F
LONG PRAIRIE   FAIR      77  72  83 E7        29.92F HAZE
LITTLE FALLS   CLOUDY    77  68  73 S8        29.91F
LITCHFIELD     MOSUNNY   90  75  62 CALM      29.90F HX 100
BUFFALO        MOSUNNY   85  70  60 S7G16     29.93F HX  90
MAPLE LAKE     CLOUDY    83  74  74 S6        29.93S HX  90
HUTCHINSON     CLOUDY    85  76  74 SE3       29.91F HX  95
$$
MNZ037-044-045-052-053-252300-
   East Central Minnesota

CITY           SKY/WX    TMP DP  RH WIND       PRES   REMARKS
PRINCETON      CLOUDY    81  72  74 S3        29.95S
MORA           PTSUNNY   75  66  73 S5        29.97F
CAMBRIDGE      MOSUNNY   81  68  65 SE5       29.94S
RUSH CITY      CLOUDY    77  68  73 S5        29.95F HAZE
MOOSE LAKE     CLOUDY    73  66  78 CALM      29.92F
HINCKLEY       CLOUDY    75  70  83 SE3       29.96S
CLOQUET        CLOUDY    72  64  78 S3        29.96S
MCGREGOR       CLOUDY    73  68  83 S6        29.94F
$$
MNZ071>073-080-081-089-090-097-098-252300-
   Southwest Minnesota

CITY           SKY/WX    TMP DP  RH WIND       PRES   REMARKS
MONTEVIDEO     CLOUDY    88  73  62 CALM      29.89S THUNDER HX  96
GRANITE FALLS  CLOUDY    86  79  79 CALM      29.89F HX  99
CANBY          TSTM      78  74  90 CALM      29.92R
MARSHALL       TSTM      85  76  74 CALM      29.89S HX  94
REDWOOD FALLS  CLOUDY    87  74  64 S7        29.87F HX  95
OLIVIA         PTSUNNY   88  75  66 S3        29.88F HX  97
PIPESTONE      CLOUDY    88  70  55 S10G18    29.90R HX  92
WINDOM         CLOUDY    88  70  55 S9        29.91S HX  92
WORTHINGTON    CLOUDY    87  73  62 S13G23    29.90F HX  94
JACKSON        CLOUDY    86  70  58 S12G18    29.93F HX  90
TRACY          CLOUDY    86  76  72 S3        29.89S HX  96
SLAYTON        CLOUDY    86  64  47 S10       29.91F
$$
MNZ065>067-074>077-082>085-091>093-252300-
   South Central Minnesota

CITY           SKY/WX    TMP DP  RH WIND       PRES   REMARKS
MANKATO        MOSUNNY   86  75  69 S13G20    29.92F HX  95
NEW ULM        SUNNY     84  73  70 S10       29.90F HX  91
ST JAMES       SUNNY     84  73  70 S10       29.91F HX  91
FAIRMONT       SUNNY     87  75  67 S13       29.91F HX  96
GLENCOE        MOSUNNY   88  77  69 S9G16     29.90F HX 101
FARIBAULT      SUNNY     82  72  69 S12       29.95F
OWATONNA       SUNNY     84  72  65 S17G26    29.95F
WASECA         SUNNY     82  70  65 S15G23    29.95F
ALBERT LEA     SUNNY     84  70  61 S17G23    29.97F
$$
MNZ078>079-086>088-094>096-252300-
   Southeast Minnesota

CITY           SKY/WX    TMP DP  RH WIND       PRES   REMARKS
ROCHESTER      SUNNY     79  71  76 S15G26    30.01R
RED WING       MOSUNNY   81  66  61 S6        29.96F
STANTON        MOSUNNY   84  72  66 S13       29.94F HX  90
DODGE CENTER   SUNNY     81  70  69 S22G31    29.98F
WINONA         MOSUNNY   81  64  57 S6        30.02R
AUSTIN         SUNNY     82  70  65 S18G26    29.98F
PRESTON        SUNNY     79  67  66 S22G30    30.02F
$$
ABBREVIATIONS USED IN REMARKS
   TC - TEMPERATURES IN CELSIUS
  WCI - WIND CHILL INDEX
   HX - HEAT INDEX
  VSB - VISIBILITY
$$




USA.gov is the U.S. government's official web portal to all federal, state and local government web resources and services.